Terug naar catalogus

EMISAR

ActiefWetenschapSSO
NORAD 68427·PAYLOAD·🇬🇷 Greece

Gelanceerd Mar 30, 2026 vanaf Vandenberg Space Force Base

Loading…

Volgende Passages (komende 24 uur)

TLE

VersSource: Space-Track

Epoch: Sep 14, 2026, 02:36 UTC

1 68427U 26067M   26257.10877589  .00008379  00000-0  38456-3 0  9991
2 68427  97.4643 214.6569 0003240  65.0657 295.0915 15.20661476 25458

Volg EMISAR in realtime met AllMySat

Download on the App Store